Location: Dillon
(41.1766°N, 107.0923°W)
Time: 16:57:04
(UTC+00:00)

DIWATA 2B (PO-101) - Pass Details

Date: 29 June 2022
Orbit: 583 x 599 km, 98.0° (Epoch: 18 August)

Event Time Altitude Azimuth Distance (km) Brightness Sun altitude
Exits shadow 07:47:57 - 98° (E) 1,993 ? -25.1°
Reaches altitude 10° 07:48:12 10° 95° (E) 1,938 ? -25.1°
Maximum altitude 07:50:24 14° 64° (ENE) 1,688 ? -25.0°
Drops below altitude 10° 07:52:36 10° 32° (NNE) 1,947 ? -24.9°
Sets 07:55:41 0° 7° (N) 2,856 ? -24.8°
